Time,TemperatureF,DewpointF,PressureIn,WindDirection,WindDirectionDegrees,WindSpeedMPH,WindSpeedGustMPH,Humidity,HourlyPrecipIn,Conditions,Clouds,dailyrainin,SoftwareType,DateUTC
2013-03-14 00:03:00,57.6,30.8,30.01,WSW,240,1.0,2.0,36,0.00,,,0.00,Wunderground v.1.15,2013-03-14 07:03:00,
2013-03-14 00:08:00,57.7,30.9,30.01,WSW,240,0.0,2.0,36,0.00,,,0.00,Wunderground v.1.15,2013-03-14 07:08:00,
2013-03-14 00:13:00,57.2,31.1,30.01,WSW,240,0.0,2.0,37,0.00,,,0.00,Wunderground v.1.15,2013-03-14 07:13:00,
2013-03-14 00:18:00,56.5,31.2,30.01,WSW,240,1.0,1.0,38,0.00,,,0.00,Wunderground v.1.15,2013-03-14 07:18:00,
2013-03-14 00:23:00,56.0,31.4,30.01,WSW,240,1.0,1.0,39,0.00,,,0.00,Wunderground v.1.15,2013-03-14 07:23:00,
2013-03-14 00:28:00,56.5,31.2,30.01,WSW,240,0.0,2.0,38,0.00,,,0.00,Wunderground v.1.15,2013-03-14 07:28:00,
2013-03-14 00:34:00,55.9,31.3,30.01,WSW,240,1.0,2.0,39,0.00,,,0.00,Wunderground v.1.15,2013-03-14 07:34:00,
2013-03-14 00:39:00,55.3,31.4,30.01,WSW,240,1.0,2.0,40,0.00,,,0.00,Wunderground v.1.15,2013-03-14 07:39:00,
2013-03-14 00:44:00,55.1,31.2,30.01,WSW,240,1.0,2.0,40,0.00,,,0.00,Wunderground v.1.15,2013-03-14 07:44:00,
2013-03-14 00:49:00,57.2,31.8,30.01,WSW,240,0.0,1.0,38,0.00,,,0.00,Wunderground v.1.15,2013-03-14 07:49:00,
2013-03-14 00:54:00,58.4,32.2,30.01,WSW,240,2.0,2.0,37,0.00,,,0.00,Wunderground v.1.15,2013-03-14 07:54:00,
2013-03-14 00:59:00,59.5,32.5,30.01,WSW,240,1.0,2.0,36,0.00,,,0.00,Wunderground v.1.15,2013-03-14 07:59:00,
2013-03-14 01:04:00,58.9,31.3,30.01,WSW,242,1.0,1.0,35,0.00,,,0.00,Wunderground v.1.15,2013-03-14 08:04:00,
2013-03-14 01:09:00,58.4,31.5,30.01,WSW,248,1.0,3.0,36,0.00,,,0.00,Wunderground v.1.15,2013-03-14 08:09:00,
2013-03-14 01:14:00,56.8,31.4,30.01,WSW,248,1.0,1.0,38,0.00,,,0.00,Wunderground v.1.15,2013-03-14 08:14:00,
2013-03-14 01:19:00,55.8,31.8,30.01,WSW,248,0.0,2.0,40,0.00,,,0.00,Wunderground v.1.15,2013-03-14 08:19:00,
2013-03-14 01:24:00,55.2,31.9,30.01,WSW,248,0.0,1.0,41,0.00,,,0.00,Wunderground v.1.15,2013-03-14 08:24:00,
2013-03-14 01:29:00,54.2,32.2,30.01,WSW,248,0.0,1.0,43,0.00,,,0.00,Wunderground v.1.15,2013-03-14 08:29:00,
2013-03-14 01:34:00,53.7,32.8,30.01,WSW,248,0.0,0.0,45,0.00,,,0.00,Wunderground v.1.15,2013-03-14 08:34:00,
2013-03-14 01:39:00,54.1,32.6,30.01,WSW,248,0.0,3.0,44,0.00,,,0.00,Wunderground v.1.15,2013-03-14 08:39:00,
2013-03-14 01:44:00,53.8,32.4,30.01,WSW,248,0.0,1.0,44,0.00,,,0.00,Wunderground v.1.15,2013-03-14 08:44:00,
2013-03-14 01:49:00,53.3,32.5,30.01,WSW,248,1.0,2.0,45,0.00,,,0.00,Wunderground v.1.15,2013-03-14 08:49:00,
2013-03-14 01:54:00,53.2,32.9,30.01,WSW,248,0.0,1.0,46,0.00,,,0.00,Wunderground v.1.15,2013-03-14 08:54:00,
2013-03-14 02:00:00,52.8,32.6,30.01,WSW,248,0.0,1.0,46,0.00,,,0.00,Wunderground v.1.15,2013-03-14 09:00:00,
2013-03-14 02:05:00,54.5,33.6,30.01,WSW,248,0.0,1.0,45,0.00,,,0.00,Wunderground v.1.15,2013-03-14 09:05:00,
2013-03-14 02:10:00,56.7,33.2,30.01,WSW,248,0.0,1.0,41,0.00,,,0.00,Wunderground v.1.15,2013-03-14 09:10:00,
2013-03-14 02:15:00,56.3,33.5,30.00,WSW,248,0.0,0.0,42,0.00,,,0.00,Wunderground v.1.15,2013-03-14 09:15:00,
2013-03-14 02:20:00,54.5,33.0,30.00,WSW,248,0.0,1.0,44,0.00,,,0.00,Wunderground v.1.15,2013-03-14 09:20:00,
2013-03-14 02:25:00,52.8,33.1,30.00,WSW,248,0.0,0.0,47,0.00,,,0.00,Wunderground v.1.15,2013-03-14 09:25:00,
2013-03-14 02:30:00,52.8,33.1,30.00,WSW,248,0.0,0.0,47,0.00,,,0.00,Wunderground v.1.15,2013-03-14 09:30:00,
2013-03-14 02:35:00,53.7,33.4,30.00,WSW,248,0.0,0.0,46,0.00,,,0.00,Wunderground v.1.15,2013-03-14 09:35:00,
2013-03-14 02:40:00,52.4,33.8,30.00,WSW,248,0.0,0.0,49,0.00,,,0.00,Wunderground v.1.15,2013-03-14 09:40:00,
2013-03-14 02:45:00,52.0,33.4,30.00,WSW,248,0.0,0.0,49,0.00,,,0.00,Wunderground v.1.15,2013-03-14 09:45:00,
2013-03-14 02:50:00,51.9,33.8,30.00,WSW,248,0.0,0.0,50,0.00,,,0.00,Wunderground v.1.15,2013-03-14 09:50:00,
2013-03-14 02:55:00,51.9,33.8,30.00,WSW,248,0.0,0.0,50,0.00,,,0.00,Wunderground v.1.15,2013-03-14 09:55:00,
2013-03-14 03:01:00,52.0,33.9,30.00,WSW,248,0.0,1.0,50,0.00,,,0.00,Wunderground v.1.15,2013-03-14 10:01:00,
2013-03-14 03:06:00,53.7,33.9,30.00,WSW,248,0.0,0.0,47,0.00,,,0.00,Wunderground v.1.15,2013-03-14 10:06:00,
2013-03-14 03:11:00,54.2,33.3,30.00,WSW,248,0.0,0.0,45,0.00,,,0.00,Wunderground v.1.15,2013-03-14 10:11:00,
2013-03-14 03:16:00,53.0,33.8,30.00,WSW,248,0.0,0.0,48,0.00,,,0.00,Wunderground v.1.15,2013-03-14 10:16:00,
2013-03-14 03:22:00,53.3,33.0,30.00,WSW,248,0.0,0.0,46,0.00,,,0.00,Wunderground v.1.15,2013-03-14 10:22:00,
2013-03-14 03:27:00,52.2,33.1,29.99,WSW,248,0.0,1.0,48,0.00,,,0.00,Wunderground v.1.15,2013-03-14 10:27:00,
2013-03-14 03:32:00,51.5,33.5,29.99,WSW,248,0.0,1.0,50,0.00,,,0.00,Wunderground v.1.15,2013-03-14 10:32:00,
2013-03-14 03:37:00,51.2,33.2,29.99,WSW,248,0.0,1.0,50,0.00,,,0.00,Wunderground v.1.15,2013-03-14 10:37:00,
2013-03-14 03:42:00,50.9,32.9,30.00,WSW,248,0.0,1.0,50,0.00,,,0.00,Wunderground v.1.15,2013-03-14 10:42:00,
2013-03-14 03:47:00,51.1,33.1,30.00,WSW,248,0.0,0.0,50,0.00,,,0.00,Wunderground v.1.15,2013-03-14 10:47:00,
2013-03-14 03:52:00,50.9,33.4,30.00,WSW,248,0.0,0.0,51,0.00,,,0.00,Wunderground v.1.15,2013-03-14 10:52:00,
2013-03-14 03:57:00,50.9,33.4,30.00,WSW,248,0.0,0.0,51,0.00,,,0.00,Wunderground v.1.15,2013-03-14 10:57:00,
2013-03-14 04:02:00,50.6,33.1,30.00,WSW,248,0.0,0.0,51,0.00,,,0.00,Wunderground v.1.15,2013-03-14 11:02:00,
2013-03-14 04:07:00,49.7,33.2,30.00,WSW,248,0.0,0.0,53,0.00,,,0.00,Wunderground v.1.15,2013-03-14 11:07:00,
2013-03-14 04:12:00,49.6,33.2,30.00,WSW,248,0.0,0.0,53,0.00,,,0.00,Wunderground v.1.15,2013-03-14 11:12:00,
2013-03-14 04:17:00,49.8,33.3,30.00,WSW,248,0.0,0.0,53,0.00,,,0.00,Wunderground v.1.15,2013-03-14 11:17:00,
2013-03-14 04:23:00,49.7,32.8,30.00,WSW,248,0.0,0.0,52,0.00,,,0.00,Wunderground v.1.15,2013-03-14 11:23:00,
2013-03-14 04:28:00,49.3,32.9,30.00,WSW,248,0.0,0.0,53,0.00,,,0.00,Wunderground v.1.15,2013-03-14 11:28:00,
2013-03-14 04:33:00,48.7,32.8,30.00,WSW,248,0.0,0.0,54,0.00,,,0.00,Wunderground v.1.15,2013-03-14 11:33:00,
2013-03-14 04:38:00,48.6,33.1,30.00,WSW,248,0.0,0.0,55,0.00,,,0.00,Wunderground v.1.15,2013-03-14 11:38:00,
2013-03-14 04:43:00,48.6,33.1,30.00,WSW,248,0.0,0.0,55,0.00,,,0.00,Wunderground v.1.15,2013-03-14 11:43:00,
2013-03-14 04:48:00,48.3,33.3,30.00,WSW,248,0.0,0.0,56,0.00,,,0.00,Wunderground v.1.15,2013-03-14 11:48:00,
2013-03-14 04:53:00,48.5,33.1,30.00,WSW,248,0.0,1.0,55,0.00,,,0.00,Wunderground v.1.15,2013-03-14 11:53:00,
2013-03-14 04:58:00,49.3,32.9,30.00,WSW,248,0.0,0.0,53,0.00,,,0.00,Wunderground v.1.15,2013-03-14 11:58:00,
2013-03-14 05:04:00,49.1,32.7,30.00,WSW,248,0.0,0.0,53,0.00,,,0.00,Wunderground v.1.15,2013-03-14 12:04:00,
2013-03-14 05:09:00,48.3,32.9,30.00,WSW,248,0.0,0.0,55,0.00,,,0.00,Wunderground v.1.15,2013-03-14 12:09:00,
2013-03-14 05:14:00,47.9,32.9,30.00,WSW,248,0.0,0.0,56,0.00,,,0.00,Wunderground v.1.15,2013-03-14 12:14:00,
2013-03-14 05:19:00,48.8,33.3,30.01,WSW,248,0.0,0.0,55,0.00,,,0.00,Wunderground v.1.15,2013-03-14 12:19:00,
2013-03-14 05:24:00,48.2,33.2,30.01,WSW,248,0.0,0.0,56,0.00,,,0.00,Wunderground v.1.15,2013-03-14 12:24:00,
2013-03-14 05:29:00,48.9,33.0,30.01,WSW,248,0.0,1.0,54,0.00,,,0.00,Wunderground v.1.15,2013-03-14 12:29:00,
2013-03-14 05:34:00,50.4,32.9,30.01,WSW,243,0.0,0.0,51,0.00,,,0.00,Wunderground v.1.15,2013-03-14 12:34:00,
2013-03-14 05:39:00,50.5,33.0,30.01,WSW,243,0.0,0.0,51,0.00,,,0.00,Wunderground v.1.15,2013-03-14 12:39:00,
2013-03-14 05:44:00,49.6,32.7,30.01,WSW,243,0.0,0.0,52,0.00,,,0.00,Wunderground v.1.15,2013-03-14 12:44:00,
2013-03-14 05:50:00,49.9,33.0,30.01,WSW,243,0.0,0.0,52,0.00,,,0.00,Wunderground v.1.15,2013-03-14 12:50:00,
2013-03-14 05:55:00,49.2,32.8,30.01,WSW,243,0.0,0.0,53,0.00,,,0.00,Wunderground v.1.15,2013-03-14 12:55:00,
2013-03-14 06:00:00,48.8,32.9,30.01,WSW,243,0.0,0.0,54,0.00,,,0.00,Wunderground v.1.15,2013-03-14 13:00:00,
2013-03-14 06:05:00,48.8,33.3,30.02,WSW,243,0.0,0.0,55,0.00,,,0.00,Wunderground v.1.15,2013-03-14 13:05:00,
2013-03-14 06:10:00,48.9,33.0,30.02,WSW,243,0.0,0.0,54,0.00,,,0.00,Wunderground v.1.15,2013-03-14 13:10:00,
2013-03-14 06:15:00,49.4,32.5,30.02,WSW,243,0.0,0.0,52,0.00,,,0.00,Wunderground v.1.15,2013-03-14 13:15:00,
2013-03-14 06:20:00,49.9,32.5,30.02,WSW,243,0.0,1.0,51,0.00,,,0.00,Wunderground v.1.15,2013-03-14 13:20:00,
2013-03-14 06:25:00,50.0,32.6,30.02,WSW,243,0.0,1.0,51,0.00,,,0.00,Wunderground v.1.15,2013-03-14 13:25:00,
2013-03-14 06:30:00,50.0,32.6,30.02,SW,214,0.0,1.0,51,0.00,,,0.00,Wunderground v.1.15,2013-03-14 13:30:00,
2013-03-14 06:35:00,50.1,32.2,30.02,SW,214,0.0,0.0,50,0.00,,,0.00,Wunderground v.1.15,2013-03-14 13:35:00,
2013-03-14 06:40:00,50.8,32.3,30.02,SW,214,1.0,1.0,49,0.00,,,0.00,Wunderground v.1.15,2013-03-14 13:40:00,
2013-03-14 06:45:00,51.2,32.2,30.03,SSW,209,0.0,1.0,48,0.00,,,0.00,Wunderground v.1.15,2013-03-14 13:45:00,
2013-03-14 06:50:00,51.5,31.9,30.03,SSW,209,0.0,1.0,47,0.00,,,0.00,Wunderground v.1.15,2013-03-14 13:50:00,
2013-03-14 06:56:00,51.2,32.2,30.02,SSW,209,0.0,0.0,48,0.00,,,0.00,Wunderground v.1.15,2013-03-14 13:56:00,
2013-03-14 07:01:00,51.6,32.0,30.03,SSW,209,0.0,1.0,47,0.00,,,0.00,Wunderground v.1.15,2013-03-14 14:01:00,
2013-03-14 07:06:00,52.3,32.6,30.03,SSW,209,0.0,0.0,47,0.00,,,0.00,Wunderground v.1.15,2013-03-14 14:06:00,
2013-03-14 07:11:00,53.0,32.8,30.03,SSW,209,0.0,0.0,46,0.00,,,0.00,Wunderground v.1.15,2013-03-14 14:11:00,
2013-03-14 07:16:00,53.5,32.7,30.03,SSW,200,0.0,2.0,45,0.00,,,0.00,Wunderground v.1.15,2013-03-14 14:16:00,
2013-03-14 07:22:00,53.9,33.0,30.04,SSW,200,0.0,2.0,45,0.00,,,0.00,Wunderground v.1.15,2013-03-14 14:22:00,
2013-03-14 07:27:00,54.3,32.8,30.04,SSW,199,0.0,1.0,44,0.00,,,0.00,Wunderground v.1.15,2013-03-14 14:27:00,
2013-03-14 07:32:00,55.0,32.9,30.04,SSW,199,0.0,1.0,43,0.00,,,0.00,Wunderground v.1.15,2013-03-14 14:32:00,
2013-03-14 07:37:00,55.7,33.5,30.05,SSW,198,1.0,1.0,43,0.00,,,0.00,Wunderground v.1.15,2013-03-14 14:37:00,
2013-03-14 07:42:00,56.4,33.0,30.05,South,182,0.0,2.0,41,0.00,,,0.00,Wunderground v.1.15,2013-03-14 14:42:00,
2013-03-14 07:47:00,57.2,33.7,30.05,South,182,0.0,2.0,41,0.00,,,0.00,Wunderground v.1.15,2013-03-14 14:47:00,
2013-03-14 07:52:00,58.0,33.2,30.05,South,182,0.0,2.0,39,0.00,,,0.00,Wunderground v.1.15,2013-03-14 14:52:00,
2013-03-14 07:57:00,58.9,32.7,30.05,SSE,147,2.0,2.0,37,0.00,,,0.00,Wunderground v.1.15,2013-03-14 14:57:00,
2013-03-14 08:03:00,59.5,31.8,30.05,SSE,147,1.0,3.0,35,0.00,,,0.00,Wunderground v.1.15,2013-03-14 15:03:00,
2013-03-14 08:08:00,60.1,32.3,30.06,SE,146,2.0,2.0,35,0.00,,,0.00,Wunderground v.1.15,2013-03-14 15:08:00,
2013-03-14 08:13:00,60.7,30.6,30.06,ESE,123,0.0,2.0,32,0.00,,,0.00,Wunderground v.1.15,2013-03-14 15:13:00,
2013-03-14 08:18:00,61.2,31.1,30.06,SE,141,1.0,3.0,32,0.00,,,0.00,Wunderground v.1.15,2013-03-14 15:18:00,
2013-03-14 08:23:00,61.6,30.6,30.05,SE,128,0.0,4.0,31,0.00,,,0.00,Wunderground v.1.15,2013-03-14 15:23:00,
2013-03-14 08:28:00,62.0,31.0,30.06,SSE,152,2.0,4.0,31,0.00,,,0.00,Wunderground v.1.15,2013-03-14 15:28:00,
2013-03-14 08:33:00,62.1,31.1,30.06,SE,138,0.0,4.0,31,0.00,,,0.00,Wunderground v.1.15,2013-03-14 15:33:00,
2013-03-14 08:38:00,62.9,31.8,30.06,East,97,1.0,2.0,31,0.00,,,0.00,Wunderground v.1.15,2013-03-14 15:38:00,
2013-03-14 08:44:00,63.2,31.2,30.06,East,98,1.0,3.0,30,0.00,,,0.00,Wunderground v.1.15,2013-03-14 15:44:00,
2013-03-14 08:49:00,63.8,31.7,30.06,ESE,113,1.0,3.0,30,0.00,,,0.00,Wunderground v.1.15,2013-03-14 15:49:00,
2013-03-14 08:54:00,64.8,31.8,30.06,ENE,73,0.0,3.0,29,0.00,,,0.00,Wunderground v.1.15,2013-03-14 15:54:00,
2013-03-14 08:59:00,65.2,31.2,30.06,ESE,115,2.0,3.0,28,0.00,,,0.00,Wunderground v.1.15,2013-03-14 15:59:00,
2013-03-14 09:04:00,65.8,31.8,30.06,East,96,1.0,1.0,28,0.00,,,0.00,Wunderground v.1.15,2013-03-14 16:04:00,
2013-03-14 09:09:00,66.3,32.2,30.06,SE,128,0.0,3.0,28,0.00,,,0.00,Wunderground v.1.15,2013-03-14 16:09:00,
2013-03-14 09:14:00,67.2,32.1,30.06,East,91,2.0,2.0,27,0.00,,,0.00,Wunderground v.1.15,2013-03-14 16:14:00,
2013-03-14 09:19:00,68.1,32.8,30.06,SSE,153,2.0,3.0,27,0.00,,,0.00,Wunderground v.1.15,2013-03-14 16:19:00,
2013-03-14 09:24:00,68.1,30.9,30.06,East,89,1.0,1.0,25,0.00,,,0.00,Wunderground v.1.15,2013-03-14 16:24:00,
2013-03-14 09:29:00,69.0,31.7,30.06,ENE,78,2.0,3.0,25,0.00,,,0.00,Wunderground v.1.15,2013-03-14 16:29:00,
2013-03-14 09:35:00,70.1,31.6,30.06,ENE,67,4.0,4.0,24,0.00,,,0.00,Wunderground v.1.15,2013-03-14 16:35:00,
2013-03-14 09:40:00,70.8,31.1,30.05,ESE,103,1.0,4.0,23,0.00,,,0.00,Wunderground v.1.15,2013-03-14 16:40:00,
2013-03-14 09:45:00,72.2,32.3,30.05,SE,124,2.0,4.0,23,0.00,,,0.00,Wunderground v.1.15,2013-03-14 16:45:00,
2013-03-14 09:50:00,72.4,32.5,30.05,ESE,110,1.0,4.0,23,0.00,,,0.00,Wunderground v.1.15,2013-03-14 16:50:00,
2013-03-14 09:55:00,73.2,30.9,30.06,ESE,122,0.0,2.0,21,0.00,,,0.00,Wunderground v.1.15,2013-03-14 16:55:00,
2013-03-14 10:00:00,74.0,32.7,30.05,East,88,3.0,4.0,22,0.00,,,0.00,Wunderground v.1.15,2013-03-14 17:00:00,
2013-03-14 10:05:00,74.9,32.3,30.05,SE,126,2.0,3.0,21,0.00,,,0.00,Wunderground v.1.15,2013-03-14 17:05:00,
2013-03-14 10:10:00,75.5,31.6,30.05,East,80,2.0,5.0,20,0.00,,,0.00,Wunderground v.1.15,2013-03-14 17:10:00,
2013-03-14 10:15:00,75.2,31.3,30.05,ESE,103,2.0,3.0,20,0.00,,,0.00,Wunderground v.1.15,2013-03-14 17:15:00,
2013-03-14 10:20:00,75.9,33.1,30.05,ENE,65,2.0,3.0,21,0.00,,,0.00,Wunderground v.1.15,2013-03-14 17:20:00,
2013-03-14 10:25:00,76.2,33.4,30.05,East,86,5.0,5.0,21,0.00,,,0.00,Wunderground v.1.15,2013-03-14 17:25:00,
2013-03-14 10:31:00,76.5,32.4,30.05,East,80,2.0,5.0,20,0.00,,,0.00,Wunderground v.1.15,2013-03-14 17:31:00,
2013-03-14 10:36:00,76.7,32.6,30.05,NE,45,3.0,4.0,20,0.00,,,0.00,Wunderground v.1.15,2013-03-14 17:36:00,
2013-03-14 10:41:00,77.7,32.1,30.05,NNE,33,4.0,5.0,19,0.00,,,0.00,Wunderground v.1.15,2013-03-14 17:41:00,
2013-03-14 10:46:00,78.4,31.4,30.05,ENE,59,2.0,4.0,18,0.00,,,0.00,Wunderground v.1.15,2013-03-14 17:46:00,
2013-03-14 10:51:00,79.1,30.5,30.05,ENE,69,2.0,4.0,17,0.00,,,0.00,Wunderground v.1.15,2013-03-14 17:51:00,
2013-03-14 10:57:00,79.8,29.6,30.05,ENE,68,5.0,5.0,16,0.00,,,0.00,Wunderground v.1.15,2013-03-14 17:57:00,
2013-03-14 11:02:00,79.9,29.7,30.05,NE,56,4.0,5.0,16,0.00,,,0.00,Wunderground v.1.15,2013-03-14 18:02:00,
2013-03-14 11:07:00,80.1,28.3,30.05,NNE,32,4.0,4.0,15,0.00,,,0.00,Wunderground v.1.15,2013-03-14 18:07:00,
2013-03-14 11:12:00,80.7,28.7,30.04,NNE,26,0.0,4.0,15,0.00,,,0.00,Wunderground v.1.15,2013-03-14 18:12:00,
2013-03-14 11:17:00,81.9,28.0,30.04,East,92,2.0,3.0,14,0.00,,,0.00,Wunderground v.1.15,2013-03-14 18:17:00,
2013-03-14 11:22:00,81.5,27.7,30.04,NNE,19,0.0,3.0,14,0.00,,,0.00,Wunderground v.1.15,2013-03-14 18:22:00,
2013-03-14 11:27:00,82.2,28.2,30.04,East,80,2.0,4.0,14,0.00,,,0.00,Wunderground v.1.15,2013-03-14 18:27:00,
2013-03-14 11:33:00,83.2,25.3,30.04,ENE,59,1.0,5.0,12,0.00,,,0.00,Wunderground v.1.15,2013-03-14 18:33:00,
2013-03-14 11:38:00,83.9,27.8,30.03,ENE,59,2.0,5.0,13,0.00,,,0.00,Wunderground v.1.15,2013-03-14 18:38:00,
2013-03-14 11:43:00,83.8,27.7,30.03,SSE,161,4.0,5.0,13,0.00,,,0.00,Wunderground v.1.15,2013-03-14 18:43:00,
2013-03-14 11:48:00,85.1,24.7,30.02,East,82,0.0,4.0,11,0.00,,,0.00,Wunderground v.1.15,2013-03-14 18:48:00,
2013-03-14 11:53:00,85.4,22.6,30.02,ESE,117,0.0,5.0,10,0.00,,,0.00,Wunderground v.1.15,2013-03-14 18:53:00,
2013-03-14 11:58:00,85.7,25.1,30.02,ESE,121,1.0,2.0,11,0.00,,,0.00,Wunderground v.1.15,2013-03-14 18:58:00,
2013-03-14 12:03:00,86.1,23.1,30.02,NE,48,2.0,2.0,10,0.00,,,0.00,Wunderground v.1.15,2013-03-14 19:03:00,
2013-03-14 12:09:00,87.4,21.6,30.01,SE,130,2.0,7.0,9,0.00,,,0.00,Wunderground v.1.15,2013-03-14 19:09:00,
2013-03-14 12:14:00,88.0,19.3,30.01,SSE,167,6.0,8.0,8,0.00,,,0.00,Wunderground v.1.15,2013-03-14 19:14:00,
2013-03-14 12:19:00,88.2,19.4,30.01,East,101,1.0,5.0,8,0.00,,,0.00,Wunderground v.1.15,2013-03-14 19:19:00,
2013-03-14 12:24:00,88.2,22.2,30.00,East,87,1.0,5.0,9,0.00,,,0.00,Wunderground v.1.15,2013-03-14 19:24:00,
2013-03-14 12:29:00,88.6,19.7,30.00,ENE,63,5.0,5.0,8,0.00,,,0.00,Wunderground v.1.15,2013-03-14 19:29:00,
2013-03-14 12:34:00,88.3,19.5,30.00,NE,48,6.0,6.0,8,0.00,,,0.00,Wunderground v.1.15,2013-03-14 19:34:00,
2013-03-14 12:39:00,88.7,16.7,30.00,ENE,63,2.0,7.0,7,0.00,,,0.00,Wunderground v.1.15,2013-03-14 19:39:00,
2013-03-14 12:44:00,88.6,19.7,30.00,NNE,28,2.0,3.0,8,0.00,,,0.00,Wunderground v.1.15,2013-03-14 19:44:00,
2013-03-14 12:49:00,89.3,20.3,29.99,NW,325,2.0,4.0,8,0.00,,,0.00,Wunderground v.1.15,2013-03-14 19:49:00,
2013-03-14 12:54:00,88.4,19.6,29.99,North,355,0.0,2.0,8,0.00,,,0.00,Wunderground v.1.15,2013-03-14 19:54:00,
2013-03-14 12:59:00,88.9,20.0,29.99,North,355,3.0,4.0,8,0.00,,,0.00,Wunderground v.1.15,2013-03-14 19:59:00,
2013-03-14 13:04:00,88.2,19.4,29.99,North,9,0.0,1.0,8,0.00,,,0.00,Wunderground v.1.15,2013-03-14 20:04:00,
2013-03-14 13:09:00,89.5,20.4,29.98,NE,44,4.0,5.0,8,0.00,,,0.00,Wunderground v.1.15,2013-03-14 20:09:00,
2013-03-14 13:14:00,89.9,17.6,29.98,NNW,344,5.0,6.0,7,0.00,,,0.00,Wunderground v.1.15,2013-03-14 20:14:00,
2013-03-14 13:20:00,89.2,23.0,29.97,WNW,294,0.0,6.0,9,0.00,,,0.00,Wunderground v.1.15,2013-03-14 20:20:00,
2013-03-14 13:25:00,89.5,17.3,29.97,NE,40,6.0,6.0,7,0.00,,,0.00,Wunderground v.1.15,2013-03-14 20:25:00,
2013-03-14 13:30:00,89.9,17.6,29.97,NE,52,3.0,6.0,7,0.00,,,0.00,Wunderground v.1.15,2013-03-14 20:30:00,
2013-03-14 13:35:00,89.2,17.1,29.96,NW,320,1.0,3.0,7,0.00,,,0.00,Wunderground v.1.15,2013-03-14 20:35:00,
2013-03-14 13:40:00,89.7,20.6,29.96,NNW,335,1.0,4.0,8,0.00,,,0.00,Wunderground v.1.15,2013-03-14 20:40:00,
2013-03-14 13:45:00,89.6,17.4,29.96,East,88,3.0,4.0,7,0.00,,,0.00,Wunderground v.1.15,2013-03-14 20:45:00,
2013-03-14 13:50:00,90.8,18.2,29.96,ENE,77,2.0,8.0,7,0.00,,,0.00,Wunderground v.1.15,2013-03-14 20:50:00,
2013-03-14 13:55:00,89.8,17.5,29.96,ENE,65,1.0,4.0,7,0.00,,,0.00,Wunderground v.1.15,2013-03-14 20:55:00,
2013-03-14 14:00:00,89.6,17.4,29.95,ESE,115,3.0,4.0,7,0.00,,,0.00,Wunderground v.1.15,2013-03-14 21:00:00,
2013-03-14 14:06:00,89.5,17.3,29.95,ESE,115,1.0,3.0,7,0.00,,,0.00,Wunderground v.1.15,2013-03-14 21:06:00,
2013-03-14 14:11:00,89.8,14.0,29.95,NE,41,2.0,3.0,6,0.00,,,0.00,Wunderground v.1.15,2013-03-14 21:11:00,
2013-03-14 14:17:00,89.8,17.5,29.95,NE,41,1.0,3.0,7,0.00,,,0.00,Wunderground v.1.15,2013-03-14 21:17:00,
2013-03-14 14:22:00,90.0,17.7,29.94,South,181,3.0,3.0,7,0.00,,,0.00,Wunderground v.1.15,2013-03-14 21:22:00,
2013-03-14 14:27:00,90.2,17.8,29.94,SSE,165,1.0,3.0,7,0.00,,,0.00,Wunderground v.1.15,2013-03-14 21:27:00,
2013-03-14 14:32:00,89.9,17.6,29.94,WSW,251,2.0,4.0,7,0.00,,,0.00,Wunderground v.1.15,2013-03-14 21:32:00,
2013-03-14 14:37:00,90.2,17.8,29.94,SW,214,0.0,3.0,7,0.00,,,0.00,Wunderground v.1.15,2013-03-14 21:37:00,
2013-03-14 14:42:00,89.7,17.4,29.94,South,170,1.0,3.0,7,0.00,,,0.00,Wunderground v.1.15,2013-03-14 21:42:00,
2013-03-14 14:47:00,90.9,18.3,29.94,South,178,1.0,4.0,7,0.00,,,0.00,Wunderground v.1.15,2013-03-14 21:47:00,
2013-03-14 14:53:00,90.8,14.7,29.94,South,182,0.0,4.0,6,0.00,,,0.00,Wunderground v.1.15,2013-03-14 21:53:00,
2013-03-14 14:58:00,91.9,19.0,29.94,North,360,0.0,3.0,7,0.00,,,0.00,Wunderground v.1.15,2013-03-14 21:58:00,
2013-03-14 15:03:00,90.7,14.6,29.93,South,176,0.0,3.0,6,0.00,,,0.00,Wunderground v.1.15,2013-03-14 22:03:00,
2013-03-14 15:08:00,90.6,14.5,29.93,NNW,348,2.0,4.0,6,0.00,,,0.00,Wunderground v.1.15,2013-03-14 22:08:00,
2013-03-14 15:13:00,90.5,14.5,29.93,ENE,78,1.0,4.0,6,0.00,,,0.00,Wunderground v.1.15,2013-03-14 22:13:00,
2013-03-14 15:18:00,90.4,14.4,29.93,NNE,32,0.0,2.0,6,0.00,,,0.00,Wunderground v.1.15,2013-03-14 22:18:00,
2013-03-14 15:23:00,91.3,15.0,29.93,NW,313,0.0,5.0,6,0.00,,,0.00,Wunderground v.1.15,2013-03-14 22:23:00,
2013-03-14 15:28:00,91.1,14.9,29.93,NE,40,0.0,2.0,6,0.00,,,0.00,Wunderground v.1.15,2013-03-14 22:28:00,
2013-03-14 15:33:00,90.7,18.2,29.92,West,266,3.0,5.0,7,0.00,,,0.00,Wunderground v.1.15,2013-03-14 22:33:00,
2013-03-14 15:39:00,91.7,15.3,29.92,North,9,2.0,6.0,6,0.00,,,0.00,Wunderground v.1.15,2013-03-14 22:39:00,
2013-03-14 15:44:00,91.9,15.5,29.92,NNW,344,4.0,8.0,6,0.00,,,0.00,Wunderground v.1.15,2013-03-14 22:44:00,
2013-03-14 15:49:00,91.7,15.3,29.92,NNE,19,6.0,6.0,6,0.00,,,0.00,Wunderground v.1.15,2013-03-14 22:49:00,
2013-03-14 15:54:00,91.4,15.1,29.92,NE,34,3.0,4.0,6,0.00,,,0.00,Wunderground v.1.15,2013-03-14 22:54:00,
2013-03-14 15:59:00,90.3,10.2,29.92,NNE,21,1.0,5.0,5,0.00,,,0.00,Wunderground v.1.15,2013-03-14 22:59:00,
2013-03-14 16:04:00,90.6,18.1,29.92,NNE,21,0.0,1.0,7,0.00,,,0.00,Wunderground v.1.15,2013-03-14 23:04:00,
2013-03-14 16:09:00,89.8,9.8,29.92,ENE,68,0.0,2.0,5,0.00,,,0.00,Wunderground v.1.15,2013-03-14 23:09:00,
2013-03-14 16:14:00,89.8,14.0,29.92,ENE,68,0.0,0.0,6,0.00,,,0.00,Wunderground v.1.15,2013-03-14 23:14:00,
2013-03-14 16:19:00,90.3,14.3,29.91,ENE,77,0.0,3.0,6,0.00,,,0.00,Wunderground v.1.15,2013-03-14 23:19:00,
2013-03-14 16:24:00,90.8,14.7,29.91,NE,42,0.0,1.0,6,0.00,,,0.00,Wunderground v.1.15,2013-03-14 23:24:00,
2013-03-14 16:29:00,91.2,15.0,29.91,NNE,24,4.0,8.0,6,0.00,,,0.00,Wunderground v.1.15,2013-03-14 23:29:00,
2013-03-14 16:34:00,90.9,18.3,29.91,North,351,5.0,6.0,7,0.00,,,0.00,Wunderground v.1.15,2013-03-14 23:34:00,
2013-03-14 16:40:00,90.9,14.7,29.91,North,9,3.0,6.0,6,0.00,,,0.00,Wunderground v.1.15,2013-03-14 23:40:00,
2013-03-14 16:45:00,91.2,15.0,29.91,NNW,341,5.0,5.0,6,0.00,,,0.00,Wunderground v.1.15,2013-03-14 23:45:00,
2013-03-14 16:50:00,90.7,14.6,29.91,NNW,340,1.0,5.0,6,0.00,,,0.00,Wunderground v.1.15,2013-03-14 23:50:00,
2013-03-14 16:55:00,90.6,18.1,29.91,North,349,0.0,2.0,7,0.00,,,0.00,Wunderground v.1.15,2013-03-14 23:55:00,
2013-03-14 17:00:00,90.5,18.0,29.91,NNW,336,2.0,4.0,7,0.00,,,0.00,Wunderground v.1.15,2013-03-15 00:00:00,
2013-03-14 17:05:00,90.3,17.9,29.91,NW,323,3.0,5.0,7,0.00,,,0.00,Wunderground v.1.15,2013-03-15 00:05:00,
2013-03-14 17:10:00,89.8,20.6,29.91,WNW,294,3.0,6.0,8,0.00,,,0.00,Wunderground v.1.15,2013-03-15 00:10:00,
2013-03-14 17:15:00,89.3,20.3,29.91,WNW,289,3.0,7.0,8,0.00,,,0.00,Wunderground v.1.15,2013-03-15 00:15:00,
2013-03-14 17:20:00,88.8,22.7,29.91,NW,315,7.0,8.0,9,0.00,,,0.00,Wunderground v.1.15,2013-03-15 00:20:00,
2013-03-14 17:25:00,88.4,22.4,29.91,NW,314,1.0,5.0,9,0.00,,,0.00,Wunderground v.1.15,2013-03-15 00:25:00,
2013-03-14 17:30:00,88.0,22.1,29.91,NW,306,2.0,9.0,9,0.00,,,0.00,Wunderground v.1.15,2013-03-15 00:30:00,
2013-03-14 17:36:00,87.5,24.2,29.91,WNW,294,5.0,5.0,10,0.00,,,0.00,Wunderground v.1.15,2013-03-15 00:36:00,
2013-03-14 17:41:00,87.2,24.0,29.91,NW,323,4.0,7.0,10,0.00,,,0.00,Wunderground v.1.15,2013-03-15 00:41:00,
2013-03-14 17:46:00,86.8,23.7,29.91,NW,304,2.0,7.0,10,0.00,,,0.00,Wunderground v.1.15,2013-03-15 00:46:00,
2013-03-14 17:51:00,86.5,25.7,29.91,NW,321,0.0,7.0,11,0.00,,,0.00,Wunderground v.1.15,2013-03-15 00:51:00,
2013-03-14 17:56:00,86.1,25.4,29.91,NW,316,2.0,3.0,11,0.00,,,0.00,Wunderground v.1.15,2013-03-15 00:56:00,
2013-03-14 18:01:00,85.5,25.0,29.91,NW,305,5.0,6.0,11,0.00,,,0.00,Wunderground v.1.15,2013-03-15 01:01:00,
2013-03-14 18:06:00,85.2,24.7,29.91,NW,311,1.0,4.0,11,0.00,,,0.00,Wunderground v.1.15,2013-03-15 01:06:00,
2013-03-14 18:11:00,84.6,26.4,29.91,NW,323,3.0,6.0,12,0.00,,,0.00,Wunderground v.1.15,2013-03-15 01:11:00,
2013-03-14 18:17:00,83.6,25.6,29.91,NW,319,1.0,3.0,12,0.00,,,0.00,Wunderground v.1.15,2013-03-15 01:17:00,
2013-03-14 18:22:00,82.4,26.6,29.91,WNW,299,0.0,3.0,13,0.00,,,0.00,Wunderground v.1.15,2013-03-15 01:22:00,
2013-03-14 18:27:00,81.1,25.6,29.91,WNW,299,1.0,1.0,13,0.00,,,0.00,Wunderground v.1.15,2013-03-15 01:27:00,
2013-03-14 18:32:00,80.2,26.7,29.91,WNW,301,0.0,3.0,14,0.00,,,0.00,Wunderground v.1.15,2013-03-15 01:32:00,
2013-03-14 18:38:00,79.5,27.8,29.91,WNW,302,0.0,1.0,15,0.00,,,0.00,Wunderground v.1.15,2013-03-15 01:38:00,
2013-03-14 18:43:00,79.2,27.5,29.91,WNW,288,1.0,4.0,15,0.00,,,0.00,Wunderground v.1.15,2013-03-15 01:43:00,
2013-03-14 18:48:00,79.3,27.6,29.91,WNW,295,1.0,3.0,15,0.00,,,0.00,Wunderground v.1.15,2013-03-15 01:48:00,
2013-03-14 18:53:00,79.1,27.5,29.91,WNW,299,3.0,3.0,15,0.00,,,0.00,Wunderground v.1.15,2013-03-15 01:53:00,
2013-03-14 18:58:00,79.0,27.4,29.91,WNW,288,2.0,3.0,15,0.00,,,0.00,Wunderground v.1.15,2013-03-15 01:58:00,
2013-03-14 19:04:00,78.8,28.8,29.91,WNW,297,2.0,3.0,16,0.00,,,0.00,Wunderground v.1.15,2013-03-15 02:04:00,
2013-03-14 19:09:00,78.6,28.6,29.92,WNW,282,2.0,4.0,16,0.00,,,0.00,Wunderground v.1.15,2013-03-15 02:09:00,
2013-03-14 19:14:00,78.4,28.5,29.92,West,281,3.0,4.0,16,0.00,,,0.00,Wunderground v.1.15,2013-03-15 02:14:00,
2013-03-14 19:19:00,78.1,28.2,29.92,WNW,290,2.0,7.0,16,0.00,,,0.00,Wunderground v.1.15,2013-03-15 02:19:00,
2013-03-14 19:24:00,78.0,28.1,29.92,West,274,2.0,2.0,16,0.00,,,0.00,Wunderground v.1.15,2013-03-15 02:24:00,
2013-03-14 19:29:00,78.0,29.6,29.92,WNW,283,2.0,4.0,17,0.00,,,0.00,Wunderground v.1.15,2013-03-15 02:29:00,
2013-03-14 19:34:00,77.6,29.3,29.92,WNW,288,1.0,2.0,17,0.00,,,0.00,Wunderground v.1.15,2013-03-15 02:34:00,
2013-03-14 19:39:00,77.2,30.4,29.92,West,278,1.0,4.0,18,0.00,,,0.00,Wunderground v.1.15,2013-03-15 02:39:00,
2013-03-14 19:44:00,77.3,30.5,29.92,WNW,284,0.0,2.0,18,0.00,,,0.00,Wunderground v.1.15,2013-03-15 02:44:00,
2013-03-14 19:49:00,77.2,30.4,29.92,WNW,294,1.0,3.0,18,0.00,,,0.00,Wunderground v.1.15,2013-03-15 02:49:00,
2013-03-14 19:54:00,76.8,30.1,29.92,WNW,282,0.0,1.0,18,0.00,,,0.00,Wunderground v.1.15,2013-03-15 02:54:00,
2013-03-14 20:00:00,76.0,30.7,29.93,WNW,287,1.0,3.0,19,0.00,,,0.00,Wunderground v.1.15,2013-03-15 03:00:00,
2013-03-14 20:05:00,75.3,30.2,29.93,WNW,286,0.0,0.0,19,0.00,,,0.00,Wunderground v.1.15,2013-03-15 03:05:00,
2013-03-14 20:10:00,74.4,30.7,29.93,WNW,287,0.0,0.0,20,0.00,,,0.00,Wunderground v.1.15,2013-03-15 03:10:00,
2013-03-14 20:15:00,74.3,30.6,29.93,WNW,287,0.0,0.0,20,0.00,,,0.00,Wunderground v.1.15,2013-03-15 03:15:00,
2013-03-14 20:20:00,73.7,31.3,29.93,WNW,287,1.0,1.0,21,0.00,,,0.00,Wunderground v.1.15,2013-03-15 03:20:00,
2013-03-14 20:25:00,73.9,30.3,29.93,WNW,286,1.0,2.0,20,0.00,,,0.00,Wunderground v.1.15,2013-03-15 03:25:00,
2013-03-14 20:30:00,73.6,31.2,29.93,WNW,286,0.0,2.0,21,0.00,,,0.00,Wunderground v.1.15,2013-03-15 03:30:00,
2013-03-14 20:35:00,73.4,31.1,29.93,West,281,0.0,1.0,21,0.00,,,0.00,Wunderground v.1.15,2013-03-15 03:35:00,
2013-03-14 20:41:00,73.8,30.2,29.93,West,281,1.0,2.0,20,0.00,,,0.00,Wunderground v.1.15,2013-03-15 03:41:00,
2013-03-14 20:45:00,73.3,31.0,29.94,West,280,2.0,2.0,21,0.00,,,0.00,Wunderground v.1.15,2013-03-15 03:45:00,
2013-03-14 20:46:00,74.3,30.6,29.94,West,280,0.0,1.0,20,0.00,,,0.00,Wunderground v.1.15,2013-03-15 03:46:00,
2013-03-14 20:47:00,73.4,31.1,29.94,West,280,2.0,2.0,21,0.00,,,0.00,Wunderground v.1.15,2013-03-15 03:47:00,
2013-03-14 20:48:00,73.4,31.1,29.94,West,280,1.0,2.0,21,0.00,,,0.00,Wunderground v.1.15,2013-03-15 03:48:00,
2013-03-14 20:49:00,73.4,31.1,29.94,West,280,2.0,2.0,21,0.00,,,0.00,Wunderground v.1.15,2013-03-15 03:49:00,
2013-03-14 20:50:00,73.4,31.1,29.94,West,280,1.0,1.0,21,0.00,,,0.00,Wunderground v.1.15,2013-03-15 03:50:00,
2013-03-14 20:51:00,74.1,30.4,29.94,West,280,0.0,1.0,20,0.00,,,0.00,Wunderground v.1.15,2013-03-15 03:51:00,
2013-03-14 20:52:00,73.5,29.9,29.94,West,280,2.0,2.0,20,0.00,,,0.00,Wunderground v.1.15,2013-03-15 03:52:00,
2013-03-14 20:53:00,73.5,29.9,29.94,West,280,1.0,2.0,20,0.00,,,0.00,Wunderground v.1.15,2013-03-15 03:53:00,
2013-03-14 20:54:00,73.6,30.0,29.94,West,280,1.0,2.0,20,0.00,,,0.00,Wunderground v.1.15,2013-03-15 03:54:00,
2013-03-14 20:55:00,73.5,29.9,29.94,West,280,1.0,2.0,20,0.00,,,0.00,Wunderground v.1.15,2013-03-15 03:55:00,
2013-03-14 20:56:00,73.3,31.0,29.94,West,280,1.0,1.0,21,0.00,,,0.00,Wunderground v.1.15,2013-03-15 03:56:00,
2013-03-14 20:57:00,73.3,29.8,29.94,West,280,0.0,2.0,20,0.00,,,0.00,Wunderground v.1.15,2013-03-15 03:57:00,
2013-03-14 20:58:00,73.2,30.9,29.94,West,280,1.0,2.0,21,0.00,,,0.00,Wunderground v.1.15,2013-03-15 03:58:00,
2013-03-14 20:59:00,73.0,30.7,29.94,West,280,2.0,2.0,21,0.00,,,0.00,Wunderground v.1.15,2013-03-15 03:59:00,
2013-03-14 21:00:00,72.8,30.6,29.94,West,280,0.0,1.0,21,0.00,,,0.00,Wunderground v.1.15,2013-03-15 04:00:00,
2013-03-14 21:01:00,72.8,30.6,29.94,West,280,0.0,1.0,21,0.00,,,0.00,Wunderground v.1.15,2013-03-15 04:01:00,
2013-03-14 21:02:00,72.7,30.5,29.94,West,280,0.0,1.0,21,0.00,,,0.00,Wunderground v.1.15,2013-03-15 04:02:00,
2013-03-14 21:03:00,72.6,30.4,29.94,West,280,0.0,1.0,21,0.00,,,0.00,Wunderground v.1.15,2013-03-15 04:03:00,
2013-03-14 21:04:00,72.5,30.3,29.94,West,280,0.0,1.0,21,0.00,,,0.00,Wunderground v.1.15,2013-03-15 04:04:00,
2013-03-14 21:05:00,72.5,30.3,29.94,West,280,0.0,1.0,21,0.00,,,0.00,Wunderground v.1.15,2013-03-15 04:05:00,
2013-03-14 21:06:00,72.4,30.2,29.94,West,280,0.0,1.0,21,0.00,,,0.00,Wunderground v.1.15,2013-03-15 04:06:00,
2013-03-14 21:07:00,72.4,30.2,29.94,West,280,1.0,1.0,21,0.00,,,0.00,Wunderground v.1.15,2013-03-15 04:07:00,
2013-03-14 21:08:00,72.2,31.2,29.95,West,280,0.0,1.0,22,0.00,,,0.00,Wunderground v.1.15,2013-03-15 04:08:00,
2013-03-14 21:09:00,71.9,29.8,29.95,West,280,0.0,1.0,21,0.00,,,0.00,Wunderground v.1.15,2013-03-15 04:09:00,
2013-03-14 21:12:00,71.2,31.5,29.95,West,280,1.0,1.0,23,0.00,,,0.00,Wunderground v.1.15,2013-03-15 04:12:00,
2013-03-14 21:13:00,71.2,31.5,29.95,West,280,1.0,1.0,23,0.00,,,0.00,Wunderground v.1.15,2013-03-15 04:13:00,
2013-03-14 21:14:00,70.9,30.1,29.95,West,280,2.0,2.0,22,0.00,,,0.00,Wunderground v.1.15,2013-03-15 04:14:00,
2013-03-14 21:16:00,70.8,30.0,29.95,West,280,0.0,2.0,22,0.00,,,0.00,Wunderground v.1.15,2013-03-15 04:16:00,
2013-03-14 21:17:00,70.7,31.1,29.95,West,280,1.0,2.0,23,0.00,,,0.00,Wunderground v.1.15,2013-03-15 04:17:00,
2013-03-14 21:18:00,70.7,31.1,29.95,West,280,1.0,2.0,23,0.00,,,0.00,Wunderground v.1.15,2013-03-15 04:18:00,
2013-03-14 21:19:00,72.5,30.3,29.94,West,280,0.0,1.0,21,0.00,,,0.00,Wunderground v.1.15,2013-03-15 04:19:00,
2013-03-14 21:24:00,71.8,30.9,29.95,West,280,0.0,0.0,22,0.00,,,0.00,Wunderground v.1.15,2013-03-15 04:24:00,
2013-03-14 21:30:00,70.8,30.0,29.95,West,280,0.0,2.0,22,0.00,,,0.00,Wunderground v.1.15,2013-03-15 04:30:00,
2013-03-14 21:35:00,70.4,30.8,29.95,West,269,1.0,2.0,23,0.00,,,0.00,Wunderground v.1.15,2013-03-15 04:35:00,
2013-03-14 21:40:00,70.2,30.6,29.95,West,269,2.0,2.0,23,0.00,,,0.00,Wunderground v.1.15,2013-03-15 04:40:00,
2013-03-14 21:45:00,70.0,30.5,29.95,West,265,1.0,1.0,23,0.00,,,0.00,Wunderground v.1.15,2013-03-15 04:45:00,
2013-03-14 21:50:00,70.1,30.6,29.95,WSW,248,0.0,2.0,23,0.00,,,0.00,Wunderground v.1.15,2013-03-15 04:50:00,
2013-03-14 21:55:00,70.1,30.6,29.95,WSW,258,2.0,2.0,23,0.00,,,0.00,Wunderground v.1.15,2013-03-15 04:55:00,
2013-03-14 22:00:00,70.1,30.6,29.95,WSW,251,2.0,3.0,23,0.00,,,0.00,Wunderground v.1.15,2013-03-15 05:00:00,
2013-03-14 22:05:00,70.3,29.6,29.95,West,261,1.0,4.0,22,0.00,,,0.00,Wunderground v.1.15,2013-03-15 05:05:00,
2013-03-14 22:11:00,69.9,30.4,29.95,WSW,254,2.0,4.0,23,0.00,,,0.00,Wunderground v.1.15,2013-03-15 05:11:00,
2013-03-14 22:16:00,69.9,30.4,29.95,WSW,254,0.0,2.0,23,0.00,,,0.00,Wunderground v.1.15,2013-03-15 05:16:00,
2013-03-14 22:21:00,70.0,29.4,29.95,WSW,250,1.0,2.0,22,0.00,,,0.00,Wunderground v.1.15,2013-03-15 05:21:00,
2013-03-14 22:26:00,69.1,29.7,29.95,WSW,250,1.0,1.0,23,0.00,,,0.00,Wunderground v.1.15,2013-03-15 05:26:00,
2013-03-14 22:31:00,68.4,30.2,29.95,WSW,257,0.0,4.0,24,0.00,,,0.00,Wunderground v.1.15,2013-03-15 05:31:00,
2013-03-14 22:36:00,69.2,30.8,29.95,WSW,257,1.0,2.0,24,0.00,,,0.00,Wunderground v.1.15,2013-03-15 05:36:00,
2013-03-14 22:41:00,69.7,30.2,29.95,WSW,257,1.0,3.0,23,0.00,,,0.00,Wunderground v.1.15,2013-03-15 05:41:00,
2013-03-14 22:46:00,69.7,30.2,29.95,WSW,248,0.0,2.0,23,0.00,,,0.00,Wunderground v.1.15,2013-03-15 05:46:00,
2013-03-14 22:51:00,69.0,30.7,29.95,WSW,248,0.0,2.0,24,0.00,,,0.00,Wunderground v.1.15,2013-03-15 05:51:00,
2013-03-14 22:57:00,67.9,30.8,29.95,WSW,248,0.0,2.0,25,0.00,,,0.00,Wunderground v.1.15,2013-03-15 05:57:00,
2013-03-14 23:02:00,66.5,30.5,29.95,WSW,248,0.0,2.0,26,0.00,,,0.00,Wunderground v.1.15,2013-03-15 06:02:00,
2013-03-14 23:07:00,65.9,30.9,29.95,WSW,248,0.0,0.0,27,0.00,,,0.00,Wunderground v.1.15,2013-03-15 06:07:00,
2013-03-14 23:12:00,64.9,31.0,29.95,WSW,248,0.0,0.0,28,0.00,,,0.00,Wunderground v.1.15,2013-03-15 06:12:00,
2013-03-14 23:17:00,64.4,30.6,29.96,WSW,248,0.0,1.0,28,0.00,,,0.00,Wunderground v.1.15,2013-03-15 06:17:00,
2013-03-14 23:22:00,63.8,30.9,29.96,WSW,248,0.0,2.0,29,0.00,,,0.00,Wunderground v.1.15,2013-03-15 06:22:00,
2013-03-14 23:27:00,62.6,31.5,29.96,WSW,248,0.0,0.0,31,0.00,,,0.00,Wunderground v.1.15,2013-03-15 06:27:00,
2013-03-14 23:32:00,62.6,31.5,29.96,WSW,248,0.0,0.0,31,0.00,,,0.00,Wunderground v.1.15,2013-03-15 06:32:00,
2013-03-14 23:38:00,61.7,31.5,29.96,WSW,248,1.0,2.0,32,0.00,,,0.00,Wunderground v.1.15,2013-03-15 06:38:00,
2013-03-14 23:43:00,60.9,31.6,29.96,WSW,248,0.0,2.0,33,0.00,,,0.00,Wunderground v.1.15,2013-03-15 06:43:00,
2013-03-14 23:48:00,60.5,31.2,29.96,WSW,248,0.0,2.0,33,0.00,,,0.00,Wunderground v.1.15,2013-03-15 06:48:00,
2013-03-14 23:53:00,59.9,31.4,29.96,WSW,248,0.0,2.0,34,0.00,,,0.00,Wunderground v.1.15,2013-03-15 06:53:00,
2013-03-14 23:58:00,59.2,31.5,29.96,WSW,248,0.0,0.0,35,0.00,,,0.00,Wunderground v.1.15,2013-03-15 06:58:00,